Regional Weather Roundup
Issued by NWS

Home | Current Version | Previous Version | Text Only | Print | Product List | Glossary Off
Versions: 1 2 3 4 5 6 7 8 9 10 11 12 13 14 15 16 17 18 19 20 21 22 23 24 25 26 27 28 29 30 31 32 33 34 35 36 37 38 39 40 41 42 43 44 45 46 47 48 49 50

000
ASUS45 KPSR 061010
RWRAZ

ARIZONA HOURLY REGIONAL WEATHER ROUNDUP
NATIONAL WEATHER SERVICE PHOENIX AZ
300 AM MST FRI MAY 06 2016

NOTE: FAIR INDICATES FEW OR NO CLOUDS BELOW 12,000 FEET WITH NO
SIGNIFICANT WEATHER AND/OR OBSTRUCTIONS TO VISIBILITY.

AZZ001>003-036-061100-
NORTHWEST ARIZONA

CITY           SKY/WX    TMP DP  RH WIND       PRES   REMARKS
BULLHEAD CITY  PTCLDY    72  37  28 S12       29.70R
KINGMAN        CLEAR     54  30  40 SE7       29.78S
$$

AZZ004>008-015-016-018-061100-
NORTH CENTRAL ARIZONA

CITY           SKY/WX    TMP DP  RH WIND       PRES   REMARKS
GRAND CANYON   MOCLDY    50  18  28 E9G17     29.95S
WILLIAMS       MOCLDY    48  14  25 S12       30.00F
PRESCOTT       PTCLDY    53  25  33 SE7       29.89S
FLAGSTAFF      MOCLDY    45  20  36 SW9       29.95S
PAYSON         PTCLDY    55  21  26 VRB6G14   29.94S
PAGE           CLOUDY    64  25  22 S6        29.82R
$$

AZZ009>014-017-061100-
NORTHEAST ARIZONA

CITY           SKY/WX    TMP DP  RH WIND       PRES   REMARKS
WINSLOW        PTCLDY    54  31  41 E5        29.91S
SAINT JOHNS    CLEAR     54  29  38 NW13      29.94R
WINDOW ROCK    PTCLDY    45  34  65 CALM      29.98F
SHOW LOW       CLEAR     46  28  49 S14       29.98F
$$

AZZ023-061100-
GREATER PHOENIX AREA

CITY           SKY/WX    TMP DP  RH WIND       PRES   REMARKS
PHOENIX        PTCLDY    70  40  33 N7        29.77S
BUCKEYE        PTCLDY    63  46  55 S8        29.80S
LUKE AFB       CLEAR     66  45  45 SW15      29.76S
DEER VALLEY    CLEAR     65  36  34 W6        29.79S
SCOTTSDALE     CLEAR     68  38  33 N3        29.81S
MESA-GATEWAY   CLEAR     66  37  34 W5        29.80S
$$

AZZ027-028-061100-
SOUTHWEST MARICOPA COUNTY AND PINAL COUNTY

CITY           SKY/WX    TMP DP  RH WIND       PRES   REMARKS
CASA GRANDE    CLEAR     64  37  36 SW8       29.81R
GILA BEND      FAIR      64  44  48 S5        29.77S
$$

AZZ503-504-507>509-061100-
SOUTHEAST ARIZONA

CITY           SKY/WX    TMP DP  RH WIND       PRES   REMARKS
TUCSON         CLEAR     68  36  30 NE3       29.85S
DAVIS-MONTHAN  CLEAR     67  37  32 S14       29.84R
NOGALES        CLEAR     63  37  38 S16G25    29.91R
SIERRA VISTA   CLEAR     64  32  30 S23G32    29.90R
DOUGLAS        CLEAR     65  30  27 S21G29    29.91F
SAFFORD        CLEAR     67  36  31 VRB3      29.84R
$$

AZZ020-021-025-026-031-061100-
SOUTHWEST ARIZONA

CITY           SKY/WX    TMP DP  RH WIND       PRES   REMARKS
YUMA           CLEAR     64  45  49 VRB3      29.77R
$$

CAZ031-033-041-043-047-048-061-061100-
SOUTHERN CALIFORNIA

CITY           SKY/WX    TMP DP  RH WIND       PRES   REMARKS
DOWNTOWN L.A.  CLOUDY    57  54  89 CALM      29.84F
L.A. AIRPORT   MOCLDY    59  54  83 CALM      29.84F
SAN DIEGO      LGT RAIN  60  54  80 CALM      29.87S
BURBANK        CLOUDY    56  48  74 CALM      29.83F
ONTARIO        PTCLDY    54  51  90 SW8       29.83F
RIVERSIDE      MOCLDY    55  52  89 NE3       29.84F
PALM SPRINGS   PTCLDY    62  43  49 SE3       29.75S
IMPERIAL       CLEAR     65  45  48 W14       29.75S
BLYTHE         PTCLDY    63  46  54 S13       29.72F
NEEDLES        PTCLDY    71  41  33 SW10      29.68S
$$

NVZ020-UTZ003-061100-
SOUTHERN NEVADA-UTAH

CITY           SKY/WX    TMP DP  RH WIND       PRES   REMARKS
LAS VEGAS      PTCLDY    63  39  41 S18       29.66F
SALT LAKE CITY CLOUDY    71  36  27 E12       29.78F
$$

NMZ009-TXZ055-061100-
NEW MEXICO-WEST TEXAS

CITY           SKY/WX    TMP DP  RH WIND       PRES   REMARKS
ALBUQUERQUE    CLEAR     64  24  21 E9        29.98F
EL PASO        PTCLDY    68  23  18 S8        29.93R
$$


........................KEY........................
SKY/WX - SKY CONDITION/WEATHER
TMP    - TEMPERATURE IN FAHRENHEIT
DP     - DEW POINT IN FAHRENHEIT
RH     - RELATIVE HUMIDITY IN PERCENT
WIND   - DIRECTION AND SPEED IN MILES PER HOUR (MPH)
VRB    - VARIABLE WIND DIRECTION
PRES   - MEAN SEA LEVEL PRESSURE IN INCHES OF MERCURY
         F - FALLING PRESSURE   R - RISING PRESSURE
         S - STEADY PRESSURE
VSB    - VISIBILITY IN MILES
HX     - HEAT INDEX IN FAHRENHEIT
WCI    - WIND CHILL INDEX IN FAHRENHEIT
TC     - TEMPERATURE IN CELSIUS WHICH IS ALSO KNOWN AS
         TEMPERATURE IN CENTIGRADE
AFB    - AIR FORCE BASE
         LUKE AFB IS LUKE AIR FORCE BASE
         DAVIS-MONTHAN IS DAVIS-MONTHAN AIR FORCE BASE
NAS    - NAVAL AIR STATION
         EL CENTRO NAS IS EL CENTRO NAVAL AIR STATION
N/A    - NOT AVAILABLE




USA.gov is the U.S. government's official web portal to all federal, state and local government web resources and services.